Location: Newark
(21.1200°N, 73.4000°E)
Time: 17:11:53
(UTC+00:00)

Explorer 11/Cluster Stage 4 - Pass Details

Date: 29 January 2020
Orbit: 467 x 1259 km, 28.8° (Epoch: 21 February)

Event Time Altitude Azimuth Distance (km) Brightness Sun altitude
Rises 13:09:55 0° 287° (WNW) 4,088 11.3 -4.3°
Reaches altitude 10° 13:13:01 10° 284° (WNW) 3,043 10.7 -5.0°
Maximum altitude 13:20:21 55° 208° (SSW) 1,190 7.8 -6.6°
Drops below altitude 10° 13:26:20 10° 132° (SE) 2,504 8.9 -7.9°
Sets 13:28:41 0° 127° (SE) 3,318 9.4 -8.5°
